Pittsburgh, PA

4:59 PM EDT on September 19, 2017 (GMT -0400)
Pittsburgh International

Weather History for KPIT - July, 2014

Change the Weather History Date:

Sunday, July 6, 2014

  Actual Average Record
Temperature  
Mean Temperature 68 °F 72 °F  
Max Temperature 80 °F 83 °F 98 °F (1988)
Min Temperature 55 °F 63 °F 48 °F (1979)
Degree Days  
Heating Degree Days 0 0  
Month to date heating degree days 1 0  
Since 1 June heating degree days 10 38  
Since 1 July heating degree days 1 0  
Cooling Degree Days 3 8  
Month to date cooling degree days 39 45  
Year to date cooling degree days 298 247  
Since 1 June cooling degree days 224 195  
Growing Degree Days 18 (Base 50)    
Moisture  
Dew Point 56 °F    
Average Humidity 61    
Maximum Humidity 86    
Minimum Humidity 36    
Precipitation  
Precipitation T in 0.13 in 1.18 in (1883)
Month to date precipitation 0.20 0.77  
Year to date precipitation 19.34 20.17  
Snow  
Snow 0.00 in 0.00 in 0.00 in (2002)
Month to date snowfall 0.0 0.0  
Since 1 July snowfall 0.0 0.0  
Snow Depth 0.00 in    
Sea Level Pressure  
Sea Level Pressure 30.07 in    
Wind  
Wind Speed 4 mph (SSW)    
Max Wind Speed 16 mph    
Max Gust Speed 20 mph    
Visibility 10 miles    
Events Rain    
T = Trace of Precipitation, MM = Missing Value Source: NWS Daily Summary

Daily Weather History Graph

Daily Weather History Graph

Search for Another Location

Airport or City:

Trip Planner

Search our weather history database for the weather conditions in past years. The results will help you decide how hot, cold, wet, or windy it might be!

Date:

Astronomy

Jul. 06, 2014 Rise Set
Actual Time 5:56 AM EDT 8:54 PM EDT
Civil Twilight 5:24 AM EDT 9:26 PM EDT
Nautical Twilight 4:42 AM EDT 10:08 PM EDT
Astronomical Twilight 3:54 AM EDT 10:56 PM EDT
Moon 2:51 PM EDT (7/6) 1:15 AM EDT (7/6)
Length of Visible Light 16h 02m
Length of Day
14h 57m
Waxing Gibbous, 62% of the Moon is Illuminated
Jul 6
Waxing Gibbous
Jul 12
Full
Jul 18
Last Quarter
Jul 26
New
Aug 3
First Quarter

Hourly Weather History & Observations

Time (EDT) Temp. Dew Point Humidity Pressure Visibility Wind Dir Wind Speed Gust Speed Precip Events Conditions
12:51 AM 62.1 °F 53.1 °F 72% 30.17 in 10.0 mi Calm Calm - N/A   Overcast
1:51 AM 61.0 °F 53.1 °F 75% 30.16 in 10.0 mi Calm Calm - N/A   Mostly Cloudy
2:51 AM 60.1 °F 53.1 °F 78% 30.14 in 10.0 mi Calm Calm - N/A   Scattered Clouds
3:51 AM 59.0 °F 53.1 °F 81% 30.14 in 10.0 mi Calm Calm - N/A   Mostly Cloudy
4:51 AM 59.0 °F 53.1 °F 81% 30.14 in 10.0 mi Calm Calm - N/A   Mostly Cloudy
5:51 AM 57.0 °F 53.1 °F 87% 30.14 in 10.0 mi Calm Calm - N/A   Mostly Cloudy
6:51 AM 57.9 °F 53.1 °F 84% 30.14 in 10.0 mi Calm Calm - N/A   Mostly Cloudy
7:51 AM 61.0 °F 54.0 °F 78% 30.14 in 10.0 mi Calm Calm - N/A   Mostly Cloudy
8:51 AM 64.9 °F 55.0 °F 70% 30.13 in 10.0 mi SSE 3.5 mph - N/A   Mostly Cloudy
9:51 AM 71.1 °F 54.0 °F 55% 30.12 in 10.0 mi Variable 5.8 mph - N/A   Mostly Cloudy
10:51 AM 73.9 °F 52.0 °F 46% 30.10 in 10.0 mi SSW 10.4 mph - N/A   Mostly Cloudy
11:51 AM 73.9 °F 51.1 °F 45% 30.09 in 10.0 mi SW 9.2 mph - N/A   Mostly Cloudy
12:51 PM 77.0 °F 52.0 °F 42% 30.06 in 10.0 mi SW 6.9 mph - N/A   Mostly Cloudy
1:51 PM 80.6 °F 51.8 °F 37% 30.05 in 10.0 mi SW 11.5 mph - N/A   Mostly Cloudy
2:51 PM 75.0 °F 55.0 °F 50% 30.05 in 10.0 mi West 4.6 mph - 0.00 in Rain Light Rain
3:51 PM 73.9 °F 57.9 °F 57% 30.04 in 10.0 mi WNW 5.8 mph - 0.00 in   Overcast
4:51 PM 73.9 °F 57.9 °F 57% 30.02 in 10.0 mi South 5.8 mph - N/A   Overcast
5:51 PM 73.4 °F 57.2 °F 57% 30.00 in 10.0 mi Calm Calm - N/A   Overcast
6:51 PM 73.9 °F 60.1 °F 62% 29.99 in 10.0 mi South 5.8 mph - N/A   Overcast
7:51 PM 73.0 °F 61.0 °F 66% 29.97 in 10.0 mi South 6.9 mph - N/A   Overcast
8:51 PM 73.0 °F 61.0 °F 66% 29.96 in 10.0 mi South 5.8 mph - N/A   Overcast
9:51 PM 71.1 °F 61.0 °F 70% 29.96 in 10.0 mi South 5.8 mph - N/A   Mostly Cloudy
10:51 PM 71.6 °F 60.8 °F 69% 29.96 in 10.0 mi South 5.8 mph - N/A   Overcast
11:51 PM 70.0 °F 61.0 °F 73% 29.94 in 10.0 mi South 3.5 mph - N/A   Mostly Cloudy